Regional Weather Roundup
Issued by NWS

Home | Current Version | Previous Version | Text Only | Print | Product List | Glossary On
Versions: 1 2 3 4 5 6 7 8 9 10 11 12 13 14 15 16 17 18 19 20 21 22 23 24 25 26 27 28 29 30 31 32 33 34 35 36 37 38 39 40 41 42 43 44 45 46 47 48 49 50
000
ASUS43 KDMX 261508
RWRIA

WEATHER ROUNDUP FOR IOWA
NATIONAL WEATHER SERVICE DES MOINES IA
1000 AM CDT TUE JUL 26 2016

NOTE: "FAIR" INDICATES FEW OR NO CLOUDS BELOW 12,000 FEET WITH NO
SIGNIFICANT WEATHER AND/OR OBSTRUCTIONS TO VISIBILITY.

* - THESE STATIONS ARE NOT NWS STATIONS...THUS NOT UNDER NWS
QUALITY CONTROL.  THEY ALSO DO NOT REPORT WEATHER SUCH
AS PRECIPITATION OR FOG.

IAZ001>003-012>014-020>022-031>034-043>046-261600-
   NORTHWEST IOWA

CITY           SKY/WX    TMP DP  RH WIND       PRES   REMARKS
CARROLL *      SUNNY     79  68  69 S6        30.09F HX  81
CHEROKEE *     SUNNY     78  68  70 S9        30.08F HX  80
DENISON *      SUNNY     79  68  69 S7        30.07F HX  81
LE MARS *      SUNNY     79  68  69 S8        30.08S HX  81
SHELDON *      SUNNY     77  68  73 S9        30.07S
SIOUX CITY     SUNNY     80  68  66 VRB5      30.07S HX  83
SPENCER        SUNNY     79  67  66 S7        30.08S HX  81
STORM LAKE *   SUNNY     79  66  65 S7        30.10S HX  81
$$

IAZ055>058-069>071-079>083-090>094-261600-
   SOUTHWEST IOWA

CITY           SKY/WX    TMP DP  RH WIND       PRES   REMARKS
ATLANTIC *     SUNNY     77  68  73 CALM      30.09S
CLARINDA *       N/A     79  68  69 MISG      30.11F HX  81
COUNCIL BLFS * SUNNY     77  66  69 SE8       30.09F
CRESTON *      SUNNY     79  66  65 VRB6      30.12S HX  81
HARLAN  *      SUNNY     75  68  78 SW5       30.13S
LAMONI         SUNNY     78  67  68 E5        30.10S HX  80
RED OAK *      SUNNY     79  66  65 SE6       30.09S HX  81
SHENANDOAH *   SUNNY     79  68  69 E7        30.10S HX  81
$$

IAZ047>049-059>061-072>074-084-261600-
   CENTRAL IOWA

CITY           SKY/WX    TMP DP  RH WIND       PRES   REMARKS
AMES           SUNNY     79  68  69 VRB3      30.09S HX  81
ANKENY *         N/A    N/A N/A N/A MISG        N/A
BOONE *        SUNNY     79  68  69 SE6       30.09S HX  81
CHARITON *       N/A    N/A N/A N/A MISG        N/A
DES MOINES     MOSUNNY   82  65  56 E3        30.08F HX  84
GRINNELL*      SUNNY     79  66  64 E6        30.10F HX  81
KNOXVILLE *    SUNNY     79  66  65 CALM      30.08S HX  81
MARSHALLTOWN   SUNNY     79  67  66 CALM      30.09F HX  81
NEWTON *       SUNNY     79  66  65 E6        30.09R HX  81
PELLA *        SUNNY     80  64  58 E3        30.10S HX  82
PERRY *          N/A     78  72  80 CALM      30.09F HX  80
$$

IAZ004>006-015-016-023>025-035-036-261600-
   NORTH CENTRAL IOWA

CITY           SKY/WX    TMP DP  RH WIND       PRES   REMARKS
ALGONA *       SUNNY     79  68  69 S6        30.10S HX  81
ESTHERVILLE    SUNNY     77  67  71 SW8       30.08S
FORT DODGE *   SUNNY     79  66  65 S6        30.11S HX  81
MASON CITY     SUNNY     79  65  62 S5        30.12S HX  81
FOREST CITY *    N/A     77  64  65 S6        30.11S
IOWA FALLS *     N/A     80  66  61 CALM      30.11F HX  82
$$

IAZ007>011-017>019-026>030-037>042-050>054-066-261600-
   NORTHEAST IOWA

CITY           SKY/WX    TMP DP  RH WIND       PRES   REMARKS
CEDAR RAPIDS   SUNNY     80  67  64 NE5       30.09R HX  82
CHARLES CITY * SUNNY     77  68  73 CALM      30.11S
CLINTON *      SUNNY     80  68  66 E5        30.08R HX  83
DECORAH *      SUNNY     77  68  73 CALM      30.10R
DUBUQUE        SUNNY     78  66  66 NE5       30.11R HX  80
MONTICELLO *   SUNNY     79  66  65 CALM      30.09S HX  81
OELWEIN *      SUNNY     79  70  73 CALM      30.11S HX  81
WATERLOO       SUNNY     78  66  66 CALM      30.09S HX  80
$$

IAZ064-065-067-068-078-261600-
   EAST CENTRAL IOWA

CITY           SKY/WX    TMP DP  RH WIND       PRES   REMARKS
DAVENPORT      SUNNY     79  66  64 SE5       30.08S HX  81
IOWA CITY      SUNNY     81  67  62 VRB7      30.09S HX  83
MT. PLEASANT * SUNNY     81  70  68 NE3       30.08S HX  85
MUSCATINE *    SUNNY     79  66  65 CALM      30.08R HX  81
QUAD CITIES    SUNNY     81  66  60 E5        30.07R HX  83
$$

IAZ062-063-075>077-085>089-095>099-261600-
   SOUTHEAST IOWA

CITY           SKY/WX    TMP DP  RH WIND       PRES   REMARKS
BURLINGTON     SUNNY     79  68  69 CALM      30.07S HX  81
FAIRFIELD *    SUNNY     79  66  65 CALM      30.08S HAZE    HX  81
KEOKUK *       SUNNY     81  68  65 E5        30.07S HX  83
CENTERVILLE *    N/A     79  66  65 CALM      30.11S HX  81
OTTUMWA        SUNNY     79  65  62 E6        30.09R HX  81
WASHINGTON *   SUNNY     79  70  73 CALM      30.09S HX  81
$$

ABBREVIATIONS USED IN REMARKS
   TC - TEMPERATURES IN CELSIUS
  WCI - WIND CHILL INDEX
   HX - HEAT INDEX
  VSB - VISIBILITY
$$




USA.gov is the U.S. government's official web portal to all federal, state and local government web resources and services.